Regional Weather Roundup
Issued by NWS

Home | Current Version | Previous Version | Graphics & Text | Print | Product List | Glossary Off
Versions: 1 2 3 4 5 6 7 8 9 10 11 12 13 14 15 16 17 18 19 20 21 22 23 24 25 26 27 28 29 30 31 32 33 34 35 36 37 38 39 40 41 42 43 44 45 46 47 48 49 50

000
ASUS43 KMKX 261411
RWRWI

WISCONSIN REGIONAL WEATHER ROUNDUP
NATIONAL WEATHER SERVICE MILWAUKEE/SULLIVAN WI
800 AM CST WED NOV 26 2014

NOTE: "FAIR" INDICATES FEW OR NO CLOUDS BELOW 12,000 FEET WITH NO
SIGNIFICANT WEATHER AND/OR OBSTRUCTIONS TO VISIBILITY.

WIZ001-002-006>008-014>016-023>028-261500-
NORTHWEST WISCONSIN

CITY           SKY/WX    TMP DP  RH WIND       PRES   REMARKS
SUPERIOR ARPT  CLOUDY    20  18  88 N5        30.18R WCI  14
ASHLAND        LGT SNOW  18  16  92 CALM      30.16R FOG
HAYWARD        CLOUDY    20  16  84 CALM      30.11R
SIREN          MOCLDY    21  18  86 N5        30.14R WCI  15
CUMBERLAND     CLOUDY    21  18  86 NE3       30.10R
RICE LAKE      CLOUDY    20  17  85 NE3       30.13R
CHETEK         CLOUDY    21  17  86 CALM      30.12R
LADYSMITH      CLOUDY    21  18  86 CALM      30.12R
EAU CLAIRE     CLOUDY    21  15  78 E6        30.12R WCI  13
MENOMONIE      CLOUDY    22  17  80 E5        30.12R WCI  16
NEW RICHMOND   CLOUDY    23  16  74 E7        30.11R WCI  15
OSCEOLA        CLOUDY    24  18  77 N3        30.15R
$$

WIZ003>005-009-010-017-018-261500-
NORTH CENTRAL WISCONSIN

CITY           SKY/WX    TMP DP  RH WIND       PRES   REMARKS
MANITOWISH WTR LGT SNOW  15  14  95 CALM      30.08S
ARBOR VITAE    CLOUDY    18  16  91 CALM      30.09R
WOODRUFF       CLOUDY    18  16  91 CALM      30.09R
RHINELANDER    CLOUDY    14  12  92 CALM      30.09R
EAGLE RIVER    CLOUDY    14  11  86 CALM      30.08R
LAND O LAKES   CLOUDY    13  10  90 CALM      30.09R
PHILLIPS       CLOUDY    18  15  89 CALM      30.09R
TOMAHAWK       CLOUDY    16  14  92 CALM      30.10R
MEDFORD        CLOUDY    18  14  86 CALM      30.08R
MERRILL        CLOUDY    16  14  93 CALM      30.10S
$$

WIZ029-030-035-036-043>047-261500-
CENTRAL WISCONSIN

CITY           SKY/WX    TMP DP  RH WIND       PRES   REMARKS
WAUSAU         CLOUDY    17  15  92 SE3       30.10S
MOSINEE        CLOUDY    16  16 100 SE3       30.12R
MARSHFIELD     CLOUDY    18  14  84 SE5       30.10S FOG     WCI  11
STEVENS POINT  CLOUDY    13  11  92 E3        30.13S FOG
WAUPACA        CLOUDY    15  12  88 NW3       30.17R FOG
WAUTOMA        CLOUDY    12   9  88 CALM      30.16R
WISC RAPIDS    CLOUDY    15  11  83 CALM      30.15R
CAMP DOUGLAS   CLOUDY    12  12 100 SE2       30.13R
$$

WIZ011>013-019>022-031-037>040-048>050-261500-
NORTHEAST WISCONSIN

CITY           SKY/WX    TMP DP  RH WIND       PRES   REMARKS
ANTIGO         CLOUDY    14  13  95 CALM      30.10R FOG
SHAWANO        CLOUDY    17  15  89 CALM      30.16S
OCONTO         CLOUDY    13  12  95 CALM      30.18R
STURGEON BAY   PTCLDY    14  10  85 CALM      30.16S
GREEN BAY      PTCLDY    13  10  88 N3        30.17R FOG
MANITOWOC      CLOUDY    18  17  96 N7        30.17R WCI   9
APPLETON       CLOUDY    18  18 100 CALM      30.15R
CLINTONVILLE   CLOUDY    18  14  86 CALM      30.15S
OSHKOSH        PTCLDY    13  10  88 CALM      30.15R FOG
$$

WIZ032>034-041-042-053>061-261500-
SOUTHWEST WISCONSIN

CITY           SKY/WX    TMP DP  RH WIND       PRES   REMARKS
LA CROSSE      CLOUDY    21  16  81 E7        30.12R WCI  12
SPARTA         CLOUDY    17  14  90 CALM      30.13R
VIROQUA        CLOUDY    16  16 100 E6        30.08R WCI   7
BOSCOBEL       CLOUDY    15  12  88 NE5       30.13R WCI   8
PRAIRIE DU CHI CLOUDY    18  15  85 E3        30.11R
PLATTEVILLE    MOCLDY    16  15  93 CALM      30.09R
$$

WIZ056-057-062-063-064-067-068-261500-
SOUTH CENTRAL WISCONSIN

CITY           SKY/WX    TMP DP  RH WIND       PRES   REMARKS
REEDSBURG      CLOUDY   N/A N/A N/A CALM      30.12S
BARABOO/DELLS  CLOUDY     9   7  90 CALM      30.12S
LONE ROCK      MOCLDY    12   5  73 CALM      30.13S
MINERAL POINT  CLOUDY    19  18  93 E6        30.07S FOG     WCI  11
MADISON        CLOUDY    14  13  95 SE3       30.13R FOG
MIDDLETON      CLOUDY    15  11  87 CALM      30.13R
WATERTOWN      MOCLDY    10   8  92 CALM      30.14R FOG
MONROE         FOG       16  14  93 E8        30.09S VSB 1/4 WCI   5
JANESVILLE     CLOUDY    18  16  93 E3        30.13S FOG
$$

WIZ051-052-058>065-066-070>072-261500-
SOUTHEAST WISCONSIN

CITY           SKY/WX    TMP DP  RH WIND       PRES   REMARKS
MILWAUKEE      MOCLDY    18  15  88 CALM      30.15F FOG
WAUKESHA       LGT SNOW   9   9 100 S3        30.15S VSB 1
MILWAUKEE/TIMM CLOUDY   N/A N/A N/A CALM      30.16S
RACINE         PTCLDY    17  15  92 NW3       30.16F FOG
BURLINGTON     SNOW      15  14  95 CALM      30.15S VSB 1/2
KENOSHA        MOCLDY    16  13  88 W6        30.15S FOG     WCI   7
FOND DU LAC    CLOUDY    13   9  84 CALM      30.15R
SHEBOYGAN      CLOUDY    20  16  84 NW5       30.15R WCI  13
WEST BEND      MOCLDY    19  16  86 CALM      30.14R
JUNEAU         PTCLDY    12  10  93 CALM      30.15R FOG
$$

LSZ147-162-261500-
LAKE SUPERIOR

STATION/POSITION TIME  TEMP    WIND        PRES    WAVE
                       AIR SEA DIR/SP/G            HT/PER
                 (UTC) (F)     (DEG/KT/KT) (MB)    (FT/S)
DEVILS ISLAND    1400   25     350/ 10/ 12 1022.1R
PORT WING        1300   20     200/  3/  3 1021.0R
SAXON HARBOR     1300   19      CALM  /  3 1020.3
$$

LMZ867-665-643>646-261500-
LAKE MICHIGAN

STATION/POSITION TIME  TEMP    WIND        PRES    WAVE
                       AIR SEA DIR/SP/G            HT/PER
                 (UTC) (F)     (DEG/KT/KT) (MB)    (FT/S)
CHAMBERS ISLAND  1300   19     240/  3/  8 1021.7R
N MID LAKE BUOY  1350   29 42  280/  4/  8 1022.0R   1
NORTHPORT PIER   1307   22     270/  2/  6 1021.3R
SISTER BAY       1343          350/  2/  4   N/A
ALGOMA LAKESHORE 1343          330/  7/  8   N/A
KEWAUNEE LAKESHO 1300   15     290/  3/  6 1020.5R
SHEBOYGAN LAKESH 1400   22 37  290/  5/  5 1022.4R
PORT WASHINGTON  1340   21     270/  5/  7 1021.7F
MILWAUKEE LAKESH 1300   21     230/  6/  7   N/A
S MID LAKE BUOY  1350   31 42  180/  6/  8 1021.8F   1/ 3
KENOSHA   LAKESH 1400   18     280/  6/  8 1021.3R
$$

TC  - TEMPERATURE IN CELSIUS
VSB - VISIBILITY IN STATUTE MILES
WCI - WIND CHILL INDEX
HX  - HEAT INDEX



USA.gov is the U.S. government's official web portal to all federal, state and local government web resources and services.